SCP
0 0 0 0 0 0 0 0 0 0 0 0 0 0 0 0 0 0 0 0 0 0 0 0 0 0 0 0 0 0 0 0 0 0 0 0 0 0 0 0 0 0 0
0 0 0 0 0 0 0 0 0 0 0 0 0 0 0 0 0 0 0 0 0 0 0 0 0 0 0 0 0 0 0 0 0 0 0 0 0 0 0 0 0 0 0
0 0 0 0 0 0 0 0 0 0 0 0 0 0 0 0 0 0 0 0 0 0 0 0 0 0 0 0 0 0 0 0 0 0 0 0 0 0 0 0 0 0 0
0 0 0 0 0 0 0 0 0 0 0 0 0 0 0 0 0 0 0 0 0 0 0 0 0 0 0 0 0 0 0 0 0 0 0 0 0 0 0 0 0 0 0
0 0 0 0 0 0 0 0 0 0 0 0 0 0 0 0 0 0 0 0 0 0 0 0 0 0 0 0 0 0 0 0 0 0 0 0 0 0 0 0 0 0 0
0 0 0 0 0 0 0 0 0 0 0 0 0 0 0 0 0 0 0 0 0 0 0 0 0 0 0 0 0 0 0 0 0 0 0 0 0 0 0 0 0 0 0
0 0 0 0 0 0 0 0 0 0 0 0 0 0 0 0 0 0 0 0 0 0 0 0 0 0 0 0 0 0 0 0 0 0 0 0 0 0 0 0 0 0 0
0 0 0 0 0 0 0 0 0 0 0 0 0 0 0 0 0 0 0 0 0 0 0 0 0 0 0 0 0 0 0 0 0 0 0 0 0 0 0 0 0 0 0
0 0 0 0 0 0 0 0 0 0 0 0 0 0 0 0 0 0 0 0 0 0 0 0 0 0 0 0 0 0 0 0 0 0 0 0 0 0 0 0 0 0 0
0 0 0 0 0 0 0 0 0 0 0 0 0 0 0 0 0 0 0 0 0 0 0 0 0 0 0 0 0 0 0 0 0 0 0 0 0 0 0 0 0 0 0
0 0 0 0 0 0 0 0 0 0 0 0 0 0 0 0 0 0 0 0 0 0 0 0 0 0 0 0 0 0 0 0 0 0 0 0 0 0 0 0 0 0 0
0 0 0 0 0 0 0 0 0 0 0 0 0 0 0 0 0 0 0 0 0 0 0 0 0 0 0 0 0 0 0 0 0 0 0 0 0 0 0 0 0 0 0
0 0 0 0 0 0 0 0 0 0 0 0 0 0 0 0 0 0 0 0 0 0 0 0 0 0 0 0 0 0 0 0 0 0 0 0 0 0 0 0 0 0 0
0 0 0 0 0 0 0 0 0 0 0 0 0 0 0 0 0 0 0 0 0 0 -0 0 0 0 0 0 0 0 0 0 0 0 0 0 0 0 0 0 0 0 0
0 0 0 0 0 0 0 0 0 0 0 0 0 0 0 0 0 0 0 0 0 0 0 -0 -0 0 0 0 0 0 0 0 0 0 0 0 0 0 0 0 0 0 0
0 0 0 0 0 0 0 0 0 0 0 0 0 0 0 0 0 0 0 0 0 0 0 0 -0 -0 0 0 0 0 0 0 0 0 0 0 0 0 0 0 0 0 0
0 0 0 0 0 0 0 0 0 0 0 0 0 0 0 0 0 0 0 0 0 0 0 0 -0 -0 0 0 0 0 0 0 0 0 0 0 0 0 0 0 0 0 0
0 0 0 0 0 0 0 0 0 0 0 0 0 0 0 0 0 0 0 0 0 0 0 0 0 -0 -0 0 0 0 0 0 0 0 0 0 0 0 0 0 0 0 0
0 0 0 0 0 0 0 0 0 0 0 0 0 0 0 0 0 0 0 0 0 0 0 0 0 0 0 0 0 0 0 0 0 0 0 0 0 0 0 0 0 0 0
0 0 0 0 0 0 0 0 0 0 0 0 0 0 0 0 0 0 0 0 0 0 0 0 0 0 0 0 0 0 0 0 0 0 0 0 0 0 0 0 0 0 0
0 0 0 0 0 0 0 0 0 0 0 0 0 0 0 0 0 0 0 0 0 0 0 0 0 0 0 0 0 0 0 0 0 0 0 0 0 0 0 0 0 0 0
0 0 0 0 0 0 0 0 0 0 0 0 0 0 0 0 0 0 0 0 0 0 0 0 0 0 0 0 0 0 0 0 0 0 0 0 0 0 0 0 0 0 0
0 0 0 0 0 0 0 0 0 0 0 0 0 0 0 0 0 0 0 0 0 0 0 0 0 0 0 0 0 0 0 0 0 0 0 0 0 0 0 0 0 0 0
0 0 0 0 0 0 0 0 0 0 0 0 0 0 0 0 0 0 0 0 0 0 0 0 0 0 0 0 0 0 0 0 0 0 0 0 0 0 0 0 0 0 0
0 0 0 0 0 0 0 0 0 0 0 0 0 0 0 0 0 0 0 0 0 0 0 0 0 0 0 0 0 0 0 0 0 0 0 0 0 0 0 0 0 0 0
0 0 0 0 0 0 0 0 0 0 0 0 0 0 0 0 0 0 0 0 0 0 0 0 0 0 0 0 0 0 0 0 0 0 0 0 0 0 0 0 0 0 0
Wind_Speed
4 4 3 2 2 2 2 2 2 2 2 2 1 1 2 2 2 2 2 3 3 1 1 2 3 3 3 4 4 4 5 5 5 6 6 6 6 7 7 7 7 7 7
3 3 3 2 2 2 2 2 2 2 2 1 2 2 2 1 2 2 2 2 3 2 1 2 3 3 3 3 4 4 4 5 5 6 6 6 6 7 7 7 7 7 7
4 3 3 3 2 2 2 2 2 2 2 2 2 2 2 1 1 2 2 1 2 2 2 3 3 3 3 4 4 4 4 4 5 5 6 6 6 6 6 7 7 7 7
4 3 3 3 3 2 2 2 2 2 2 2 2 2 2 1 1 2 1 1 1 2 2 2 2 3 4 4 4 5 5 4 5 5 6 6 6 6 6 7 7 7 7
4 3 3 3 3 2 2 2 2 1 2 2 2 2 2 1 1 1 1 1 1 1 1 2 2 2 2 3 4 5 5 5 5 5 5 6 6 6 6 6 7 7 7
5 3 3 4 3 2 2 2 2 2 1 1 2 2 2 2 1 1 1 1 1 1 1 2 2 2 3 3 3 4 4 5 5 5 6 6 7 7 6 6 6 7 7
5 4 3 3 3 2 2 2 1 2 2 1 1 2 3 2 1 1 1 1 1 1 1 1 1 2 2 3 4 4 4 4 5 6 7 7 7 7 7 7 6 6 7
5 4 4 3 3 2 3 2 1 1 2 1 0 1 2 2 2 2 2 1 1 1 1 2 2 1 2 2 3 4 4 5 5 5 6 8 8 8 8 7 7 7 7
5 4 4 3 3 2 2 2 2 1 2 2 1 1 1 2 3 3 2 2 1 1 2 2 2 2 2 2 3 4 5 5 6 7 7 7 8 9 9 8 8 7 7
5 5 4 4 3 3 3 3 2 2 2 2 2 1 2 2 2 3 3 2 2 3 3 3 3 3 3 2 3 5 6 6 7 8 8 7 7 7 8 9 9 9 9
5 5 5 4 4 3 4 3 3 3 2 3 2 2 2 2 2 2 4 4 3 2 3 3 3 3 3 3 3 5 6 7 8 8 8 8 8 8 9 9 9 9 9
4 5 6 4 4 4 4 4 4 4 3 4 3 2 2 2 2 2 4 4 5 4 3 3 3 3 3 3 4 6 7 7 8 9 9 9 9 8 8 8 9 8 9
4 6 6 5 4 4 5 5 4 4 4 4 4 3 3 3 3 3 3 4 5 4 3 3 3 3 3 3 3 6 7 7 8 9 9 9 8 7 7 7 7 7 7
5 6 6 6 6 6 6 5 4 5 4 4 5 5 3 3 3 3 3 3 4 5 4 4 2 3 3 3 4 6 5 7 8 8 9 8 7 6 6 6 7 7 6
5 6 6 6 6 6 6 5 4 5 5 5 5 5 4 4 3 3 3 3 4 6 7 4 3 3 3 3 5 4 4 6 8 8 8 7 6 6 5 4 4 4 4
6 6 7 7 6 6 6 5 5 5 5 5 5 6 5 4 4 3 4 4 4 5 7 4 4 3 4 4 5 4 4 7 7 8 7 6 6 5 5 5 4 5 4
6 7 7 7 7 7 6 5 5 6 6 6 6 6 7 5 5 4 4 4 4 4 6 5 3 3 4 5 4 3 3 3 4 6 6 6 5 6 6 5 5 5 5
6 7 7 7 7 7 6 7 7 7 7 7 7 7 7 6 6 5 5 5 5 5 5 7 5 4 4 5 4 4 4 3 3 5 6 6 6 6 6 6 6 6 6
7 7 7 7 8 8 7 7 7 8 8 7 7 7 7 7 7 6 6 6 5 5 4 5 5 4 3 3 3 3 3 3 3 4 6 6 6 6 6 6 6 6 6
6 7 7 8 8 8 8 8 8 8 8 8 8 8 8 8 8 8 7 7 6 5 5 5 5 4 4 3 3 3 3 3 3 2 4 4 5 6 7 6 6 6 6
7 7 7 8 8 7 7 8 8 9 8 8 8 8 8 9 11 9 8 7 7 6 5 5 5 4 4 3 4 3 4 2 3 2 2 2 2 2 3 5 6 6 6
7 7 7 8 8 7 12 14 11 8 8 8 8 8 8 9 10 12 13 12 10 9 7 6 6 7 7 5 4 4 3 3 4 3 3 3 2 3 3 3 6 7 7
7 7 8 8 8 10 14 15 14 10 8 7 8 7 7 7 9 7 9 12 12 13 13 9 9 9 7 7 6 6 6 5 5 3 2 4 2 4 3 4 7 8 8
7 7 8 8 8 10 14 15 15 9 7 7 7 7 7 7 7 8 7 8 8 9 10 9 8 9 8 7 8 7 6 4 3 3 3 4 3 3 3 3 7 9 8
7 7 7 8 8 10 14 15 15 7 6 7 7 7 7 7 10 12 9 8 8 8 10 12 12 11 11 11 8 5 5 4 5 3 3 3 3 2 2 3 4 7 7
7 8 8 7 8 9 13 15 14 6 6 6 7 7 9 10 11 12 8 7 8 7 6 7 7 8 8 8 10 8 7 6 4 4 4 3 3 2 2 2 2 3 4
Wind_Direction
2 356 352 359 2 1 360 355 353 356 354 353 353 358 344 334 328 324 323 329 326 311 215 190 179 169 168 165 163 164 167 169 169 164 158 159 162 166 164 164 162 161 158
359 355 350 351 351 350 348 344 333 345 337 344 339 329 314 316 317 314 312 315 320 314 279 226 209 196 185 180 175 171 173 174 182 182 178 174 172 170 171 172 173 172 167
353 356 349 343 339 340 350 352 352 359 358 358 340 318 307 302 306 312 311 313 309 303 286 243 224 216 208 203 197 192 188 186 186 185 185 185 182 178 177 179 177 181 183
355 354 351 340 337 340 355 354 353 355 355 353 336 321 316 301 298 291 296 315 327 322 308 290 251 232 223 217 216 210 202 198 196 197 196 193 188 185 190 190 187 189 194
356 352 345 334 339 346 349 347 347 344 337 342 324 314 310 290 281 295 307 303 308 321 327 326 309 278 254 236 230 225 216 212 211 209 207 203 198 195 191 194 196 195 193
351 348 340 337 344 353 344 349 331 338 310 324 317 318 303 286 276 260 277 295 303 310 341 345 335 308 293 272 248 240 234 225 221 218 217 215 210 206 201 202 207 206 201
344 349 342 337 343 341 326 317 315 331 323 347 358 333 319 299 274 268 271 271 282 291 328 326 329 329 307 295 275 258 252 244 236 228 223 220 215 214 214 213 213 213 211
340 345 344 334 330 326 330 322 324 319 311 340 15 329 322 324 329 296 267 249 260 312 313 304 301 304 310 306 298 281 263 258 252 248 239 229 223 220 222 222 221 215 214
338 333 332 328 325 318 299 300 262 258 269 278 249 184 212 262 310 298 285 265 266 275 279 284 282 290 293 290 291 283 277 272 261 256 252 243 233 226 224 224 223 216 215
335 335 329 324 319 314 297 290 295 266 232 255 270 274 257 230 244 288 293 288 283 271 264 272 272 269 271 270 277 282 279 276 266 261 255 247 238 233 233 227 226 223 220
332 332 326 323 317 307 296 285 287 272 242 245 253 274 285 275 248 249 273 286 293 277 269 261 256 260 265 263 264 272 277 276 270 262 256 250 244 237 234 234 233 227 224
325 328 322 313 308 304 297 283 271 261 251 253 256 257 256 236 250 257 264 274 280 283 280 268 255 253 254 259 264 273 273 274 272 268 262 255 251 246 242 240 238 231 226
321 318 317 309 303 297 294 288 272 265 254 252 247 250 255 259 263 262 263 274 284 289 277 268 258 256 259 255 258 267 266 269 272 271 267 263 255 251 250 244 241 237 235
305 307 308 308 304 299 297 291 279 269 259 254 257 251 254 259 263 258 252 262 280 284 273 264 271 255 258 251 260 268 265 265 265 266 268 271 268 261 257 253 248 244 243
306 310 306 305 303 304 298 293 286 276 263 254 255 249 250 251 251 253 251 239 243 265 268 264 265 266 263 255 261 258 261 263 263 261 261 262 261 259 254 249 245 242 239
302 305 306 303 303 300 296 290 289 286 273 264 261 252 251 252 251 250 243 249 251 253 264 260 262 276 276 275 268 264 260 271 266 258 252 248 246 248 244 237 232 230 227
300 301 303 303 302 296 291 287 284 287 276 273 268 257 252 250 247 246 245 245 251 253 263 276 276 278 265 267 269 258 259 255 257 251 247 243 242 243 241 236 235 230 223
297 297 299 298 298 295 287 282 281 284 272 269 269 264 261 255 248 245 242 243 245 249 252 269 277 269 259 255 254 249 259 258 251 253 250 246 242 244 240 236 234 231 225
298 299 299 296 296 293 286 281 277 275 268 262 262 260 261 256 251 246 242 242 244 253 252 253 266 270 266 258 259 260 253 253 253 252 246 240 237 243 243 238 233 231 225
297 298 298 296 295 290 285 281 278 276 269 264 260 258 255 248 250 247 244 240 240 243 248 248 257 262 264 256 239 238 248 242 247 258 250 245 243 246 243 240 234 229 228
296 295 297 297 296 292 285 284 281 279 271 270 266 261 256 254 255 255 252 237 231 235 240 246 254 258 254 243 236 235 241 244 251 239 232 243 239 238 238 236 234 230 232
295 296 296 296 296 297 302 298 293 285 279 275 274 270 263 261 259 263 263 257 246 236 233 238 245 246 245 240 240 239 239 234 251 215 208 245 226 239 240 230 237 236 234
295 295 296 295 294 297 303 303 299 295 281 276 274 271 272 268 268 256 262 261 257 253 247 240 238 241 242 234 227 235 235 238 243 217 207 250 234 242 246 244 240 239 236
292 291 295 294 294 298 305 305 305 299 285 281 276 273 268 265 259 257 253 252 249 249 247 241 236 238 240 232 226 232 236 252 267 233 209 240 234 240 252 242 240 235 234
291 291 293 294 294 298 303 305 305 295 287 284 282 278 269 264 265 266 258 253 254 255 261 256 251 250 248 245 237 223 220 225 246 242 209 215 220 241 253 249 237 228 228
288 294 296 294 291 293 299 303 304 292 290 289 286 279 275 273 273 271 259 250 250 251 252 257 255 254 247 240 239 226 214 219 232 237 204 192 200 190 236 239 222 218 215